"2009-09-26 00:00:00",1273247,0.098,357.3,20.04,0.133,13.02,106.157,15.04,16.04,42.97,0,110.8,13.23,15.84,319.3
"2009-09-26 00:00:30",1273248,0.317,5.85,9.39,0.186,13.06,106.1809,15.1,16.04,43.1,0,110.8,13.23,15.90,327.9
"2009-09-26 00:01:00",1273249,0.411,356.1,10.1,0.1,13.04,106.186,15.11,16.06,43.23,0,110.8,13.23,15.91,318.1
"2009-09-26 00:01:30",1273250,0.241,350.8,13.84,0.112,13.35,106.193,15.13,16.1,43.37,0,110.8,13.23,15.93,312.8
"2009-09-26 00:02:00",1273251,0.354,2.823,11.43,0.104,13.07,106.2121,15.18,16.12,43.37,0,110.8,13.23,15.98,324.8
"2009-09-26 00:02:30",1273252,0.414,10.07,16.37,0.12,12.91,106.2186,15.19,16.15,43.31,0,110.8,13.23,16.00,332.1
"2009-09-26 00:03:00",1273253,0.545,11.63,6.166,0.177,13.1,106.2186,15.19,16.16,43.34,0,110.8,13.23,16.00,333.6
"2009-09-26 00:03:30",1273254,0.702,30.26,6.975,0.163,12.92,106.2345,15.23,16.18,43.41,0,110.8,13.23,16.04,352.3
"2009-09-26 00:04:00",1273255,0.717,30.16,9.27,0.15,13.1,106.2562,15.29,16.21,43.46,0,110.8,13.23,16.09,352.2
"2009-09-26 00:04:30",1273256,1.049,41.93,4.383,0.25,13,106.2541,15.28,16.25,43.53,0,110.8,13.23,16.09,3.9
"2009-09-26 00:05:00",1273257,1.324,44.66,2.14,0.117,13.15,106.2568,15.29,16.26,43.64,0,110.8,13.23,16.10,6.7
"2009-09-26 00:05:30",1273258,1.104,49.41,4.576,0.149,13.26,106.2725,15.33,16.28,43.66,0,110.8,13.23,16.14,11.4
"2009-09-26 00:06:00",1273259,0.792,29.2,9.15,0.118,13.39,106.2969,15.39,16.31,43.58,0,110.8,13.23,16.20,351.2
"2009-09-26 00:06:30",1273260,0.856,35.54,6.327,0.082,13.47,106.3031,15.41,16.33,43.46,0,110.8,13.23,16.22,357.5
"2009-09-26 00:07:00",1273261,0.618,20.91,15.72,0.163,13.7,106.3067,15.42,16.35,43.33,0,110.8,13.23,16.22,342.9
"2009-09-26 00:07:30",1273262,0.303,7.065,9.32,0.262,14.43,106.3097,15.43,16.36,42.75,0,110.8,13.23,16.23,329.1
"2009-09-26 00:08:00",1273263,0.219,10.69,11.42,0.103,14.21,106.3021,15.41,16.35,42.27,0,110.8,13.23,16.21,332.7
"2009-09-26 00:08:30",1273264,0.53,25.55,10.11,0.131,13.73,106.2915,15.38,16.37,42.59,0,110.8,13.23,16.19,347.5
"2009-09-26 00:09:00",1273265,0.427,24.07,6.911,0.146,13.78,106.2791,15.35,16.35,42.99,0,110.8,13.23,16.15,346.1
"2009-09-26 00:09:30",1273266,0.605,40.76,11.94,0.188,13.6,106.2715,15.33,16.35,42.99,0,110.8,13.24,16.13,2.8
"2009-09-26 00:10:00",1273267,2.013,46.65,11.49,1.423,15.82,106.269,15.32,16.43,43.25,0,110.8,13.2,16.13,8.7
"2009-09-26 00:10:30",1273268,1.212,31.86,10,1.167,15.07,106.2754,15.34,16.49,43.32,0,110.8,13.2,16.14,353.9
"2009-09-26 00:11:00",1273269,0.259,20.83,10.36,0.161,13.55,106.2698,15.32,16.3,43.09,0,110.8,13.23,16.13,342.8
"2009-09-26 00:11:30",1273270,1.142,33.29,8.8,1.312,15.02,106.2445,15.26,16.39,43.13,0,110.8,13.2,16.06,355.3
"2009-09-26 00:12:00",1273271,0.951,15.36,9.94,0.997,14.4,106.2442,15.26,16.41,43.14,0,110.8,13.2,16.06,337.4
"2009-09-26 00:12:30",1273272,1.977,17.78,14.62,1.334,15.84,106.2439,15.26,16.35,42.92,0,110.8,13.19,16.06,339.8
"2009-09-26 00:13:00",1273273,0.414,10.08,11.98,0.788,13.59,106.2437,15.26,16.42,42.92,0,110.8,13.19,16.06,332.1
"2009-09-26 00:13:30",1273274,1.168,17.71,16.09,1.19,13.54,106.2437,15.26,16.28,42.83,0,110.8,13.19,16.06,339.7
"2009-09-26 00:14:00",1273275,0.492,29.99,7.696,0.083,11.6,106.2434,15.26,16.26,42.89,0,110.8,13.22,16.06,352.0
"2009-09-26 00:14:30",1273276,0.525,18.71,6.103,0.086,11.65,106.2375,15.24,16.24,42.92,0,110.8,13.22,16.05,340.7
"2009-09-26 00:15:00",1273277,0.778,27.19,6.722,0.893,12.13,106.2307,15.22,16.24,42.94,0,110.8,13.19,16.03,349.2
"2009-09-26 00:15:30",1273278,0.709,30.81,13.47,1.059,13.21,106.211,15.17,16.41,43.22,0,110.7,13.19,15.98,352.8
"2009-09-26 00:15:30",1273279,0.265,34.67,16.05,0.526,12.45,106.1801,15.09,16.3,43.19,0,110.8,13.24,15.90,356.7
"2009-09-26 00:16:00",1273280,0.218,24.69,16.38,0.137,11.81,106.1469,15.01,16.16,43.17,0,110.8,13.24,15.81,346.7
"2009-09-26 00:16:30",1273281,0.184,22.01,14.28,0.151,11.72,106.1135,14.92,16.1,43.34,0,110.8,13.24,15.73,344.0
"2009-09-26 00:17:00",1273282,0.175,29.47,20.01,0.129,11.91,106.0778,14.83,16.04,43.57,0,110.8,13.24,15.64,351.5
"2009-09-26 00:17:30",1273283,0.495,71.69,7.215,0.098,11.87,106.0797,14.84,15.97,43.88,0,110.7,13.24,15.64,33.7
"2009-09-26 00:18:00",1273284,0.452,84.8,3.737,0.076,12.31,106.0876,14.86,15.94,44.21,0,110.8,13.24,15.66,46.8
"2009-09-26 00:18:30",1273285,0.707,66.3,9.68,0.137,12.33,106.0725,14.82,15.9,44.37,0,110.8,13.24,15.62,28.3
"2009-09-26 00:19:00",1273286,0.733,39.46,3.924,0.099,12.58,106.0665,14.8,15.88,44.46,0,110.7,13.24,15.61,1.5
"2009-09-26 00:19:30",1273287,0.853,43.33,2.812,0.084,12.91,106.0692,14.81,15.84,44.56,0,110.7,13.24,15.61,5.3
"2009-09-26 00:20:00",1273288,0.692,34.65,4.457,0.078,13.04,106.0641,14.8,15.81,44.63,0,110.7,13.24,15.60,356.6
"2009-09-26 00:20:30",1273289,1.691,48.69,7.833,1.372,15.21,106.048,14.76,15.95,44.85,0,110.7,13.2,15.56,10.7
"2009-09-26 00:21:00",1273290,0.522,32.33,6.343,0.074,13.62,106.0432,14.74,15.92,44.88,0,110.7,13.24,15.55,354.3
"2009-09-26 00:21:30",1273291,0.418,23.7,8.5,0.064,13.02,106.0432,14.74,15.76,44.84,0,110.7,13.24,15.55,345.7
"2009-09-26 00:22:00",1273292,0.326,5.775,7.499,0.059,12.87,106.0227,14.69,15.74,44.95,0,110.7,13.24,15.49,327.8
"2009-09-26 00:22:30",1273293,0.271,355.6,8.94,0.087,13.34,106.0094,14.66,15.73,45.03,0,110.7,13.24,15.46,317.6
"2009-09-26 00:23:00",1273294,0.477,353.6,8.54,0.133,13.19,106.008,14.65,15.71,45.06,0,110.7,13.24,15.46,315.6
"2009-09-26 00:23:30",1273295,0.406,351.8,10.23,0.149,13.54,105.9917,14.61,15.68,45.08,0,110.7,13.24,15.41,313.8
"2009-09-26 00:24:00",1273296,0.192,354.4,17.56,0.121,13.46,105.9757,14.57,15.65,44.98,0,110.7,13.24,15.37,316.4
"2009-09-26 00:24:30",1273297,0.339,340.7,6.371,0.054,13.12,105.972,14.56,15.62,45.04,0,110.7,13.24,15.36,302.7
"2009-09-26 00:25:00",1273298,0.197,5.312,19.86,0.092,13.65,105.9453,14.49,15.59,45.05,0,110.7,13.24,15.30,327.3
"2009-09-26 00:25:30",1273299,0.105,351.3,14.21,0.1,13.75,105.9419,14.48,15.55,45.08,0,110.7,13.24,15.29,313.3
"2009-09-26 00:26:00",1273300,0.251,334.2,6.147,0.066,13.39,105.9301,14.45,15.54,45.19,0,110.7,13.24,15.26,296.2
"2009-09-26 00:26:30",1273301,0.258,351.8,16.05,0.11,13.55,105.9093,14.4,15.51,45.17,0,110.7,13.24,15.20,313.8
"2009-09-26 00:27:00",1273302,0.271,348.8,12.88,0.09,13.48,105.8849,14.34,15.48,45.18,0,110.7,13.25,15.14,310.8
"2009-09-26 00:27:30",1273303,0.123,6.195,24.77,0.124,13.68,105.8724,14.31,15.43,45.33,0,110.7,13.25,15.11,328.2
"2009-09-26 00:28:00",1273304,0.07,21.77,14.85,0.079,13.91,105.8487,14.25,15.38,45.49,0,110.7,13.25,15.05,343.8
"2009-09-26 00:28:30",1273305,0.153,11.32,11.22,0.131,13.86,105.8321,14.2,15.34,45.75,0,110.7,13.25,15.00,333.3
"2009-09-26 00:29:00",1273306,0.246,353.8,14.37,0.121,14,105.8173,14.16,15.3,45.88,0,110.7,13.25,14.97,315.8
"2009-09-26 00:29:30",1273307,0.203,2.055,16.68,0.088,14,105.8191,14.17,15.26,45.96,0,110.7,13.26,14.97,324.1
"2009-09-26 00:30:00",1273308,0.266,346,10.53,0.098,13.88,105.8168,14.16,15.23,46.03,0,110.7,13.26,14.97,308.0
"2009-09-26 00:30:30",1273309,0.15,9.81,13.53,0.132,14.05,105.8024,14.13,15.21,46.1,0,110.7,13.26,14.93,331.8
"2009-09-26 00:31:00",1273310,0.265,348.7,14.72,0.079,13.75,105.799,14.12,15.18,46.17,0,110.7,13.26,14.92,310.7
"2009-09-26 00:31:30",1273311,0.307,348.6,12.98,0.078,13.98,105.8032,14.13,15.16,46.24,0,110.7,13.26,14.93,310.6
"2009-09-26 00:32:00",1273312,0.15,358.7,18.72,0.102,14.25,105.8074,14.14,15.15,46.32,0,110.7,13.26,14.94,320.7
"2009-09-26 00:32:30",1273313,0.442,348.2,5.968,0.071,14,105.8068,14.14,15.13,46.35,0,110.7,13.26,14.94,310.2
"2009-09-26 00:33:00",1273314,1.423,347.4,11.11,1.311,15.97,105.8004,14.12,15.26,46.45,0,110.7,13.22,14.92,309.4
"2009-09-26 00:33:30",1273315,0.986,343.7,7.535,1.05,14.91,105.7877,14.09,15.25,46.46,0,110.7,13.22,14.89,305.7
"2009-09-26 00:34:00",1273316,0.539,340.7,5.661,0.07,13.4,105.777,14.06,15.1,46.25,0,110.7,13.26,14.86,302.7
"2009-09-26 00:34:30",1273317,0.458,345.1,6.477,0.078,13.16,105.7751,14.06,15.1,46.18,0,110.7,13.26,14.86,307.1
"2009-09-26 00:35:00",1273318,0.403,343.2,4.792,0.053,12.9,105.7751,14.06,15.07,46.03,0,110.6,13.26,14.86,305.2
"2009-09-26 00:35:30",1273319,1.126,332.7,5.11,1.166,13.52,105.7751,14.06,15.06,45.99,0,110.7,13.22,14.86,294.7
"2009-09-26 00:36:00",1273320,1.591,337.2,9.11,1.391,15.15,105.7711,14.05,15.23,46.35,0,110.6,13.22,14.85,299.2
"2009-09-26 00:36:30",1273321,2.11,345.2,9.68,1.433,15.81,105.7635,14.03,15.17,46.36,0,110.6,13.22,14.83,307.2
"2009-09-26 00:37:00",1273322,0.42,354.7,7.157,0.199,12.93,105.7534,14,15.03,46.23,0,110.6,13.26,14.80,316.7
"2009-09-26 00:37:30",1273323,0.368,350.6,14.43,0.193,12.23,105.7413,13.97,15.03,46.16,0,110.6,13.26,14.77,312.6
"2009-09-26 00:38:00",1273324,0.32,356.9,16.44,0.181,12.35,105.7413,13.97,15.02,46.09,0,110.6,13.26,14.77,318.9
"2009-09-26 00:38:30",1273325,0.661,346.2,6.76,0.108,12.14,105.7413,13.97,15.1,46.08,0,110.6,13.26,14.77,308.2
"2009-09-26 00:39:00",1273326,2.11,342,8.4,1.25,14.35,105.7413,13.97,15.06,45.96,0,110.6,13.22,14.77,304.0
"2009-09-26 00:39:30",1273327,0.961,333,4.85,0.068,11.81,105.7334,13.95,14.98,45.69,0,110.6,13.26,14.75,295.0
"2009-09-26 00:40:00",1273328,1.094,336,2.006,0.072,11.75,105.7157,13.9,14.97,45.54,0,110.6,13.26,14.71,298.0
"2009-09-26 00:40:30",1273329,1.119,330.2,5.478,0.057,11.96,105.7084,13.89,14.96,45.47,0,110.6,13.26,14.69,292.2
"2009-09-26 00:41:00",1273330,1.047,324.4,2.793,0.081,12.36,105.7126,13.9,14.95,45.44,0,110.6,13.26,14.70,286.4
"2009-09-26 00:41:30",1273331,0.938,324,2.217,0.052,12.64,105.713,13.9,14.94,45.51,0,110.6,13.26,14.70,286.0
"2009-09-26 00:42:00",1273332,2.025,327.5,6.854,1.307,14.91,105.7027,13.87,15,45.65,0,110.6,13.22,14.67,289.5
"2009-09-26 00:42:30",1273333,2.143,324.6,4.839,1.315,15.01,105.6934,13.85,15.06,45.8,0,110.6,13.22,14.65,286.6
"2009-09-26 00:43:00",1273334,1.26,310.1,1.937,0.088,13.06,105.6981,13.86,14.9,45.69,0,110.6,13.26,14.66,272.1
"2009-09-26 00:43:30",1273335,1.263,311.2,1.493,0.082,12.85,105.7013,13.87,14.88,45.72,0,110.6,13.26,14.67,273.2
"2009-09-26 00:44:00",1273336,1.169,309.4,0.836,0.049,13.08,105.6843,13.82,14.87,45.79,0,110.6,13.26,14.62,271.4
"2009-09-26 00:44:30",1273337,1.598,304.9,4.718,0.983,13.67,105.6757,13.8,14.84,45.94,0,110.6,13.23,14.60,266.9
"2009-09-26 00:45:00",1273338,2.615,309.5,7.817,1.382,15.98,105.6754,13.8,15.04,46.28,0,110.6,13.23,14.60,271.5
"2009-09-26 00:45:30",1273339,2.207,307.4,6.381,1.295,14.63,105.6562,13.75,14.94,46.39,0,110.6,13.23,14.55,269.4
"2009-09-26 00:46:00",1273340,1.383,301.3,3.256,0.087,12.41,105.6419,13.72,14.78,46.52,0,110.6,13.27,14.52,263.3
"2009-09-26 00:46:30",1273341,1.689,301,4.361,0.67,12.53,105.6408,13.71,14.79,46.97,0,110.6,13.23,14.51,263.0
"2009-09-26 00:47:00",1273342,2.492,308.6,5.235,1.24,13.53,105.6174,13.65,14.75,47.3,0,110.6,13.23,14.45,270.6
"2009-09-26 00:47:30",1273343,2.664,311.9,6.569,1.327,14.72,105.6081,13.63,14.88,47.65,0,110.6,13.23,14.43,273.9
"2009-09-26 00:48:00",1273344,1.434,306.9,1.873,0.034,12.4,105.5921,13.59,14.7,47.52,0,110.6,13.27,14.39,268.9
"2009-09-26 00:48:30",1273345,1.583,304.7,2.789,0.079,12.34,105.5749,13.54,14.66,47.65,0,110.6,13.27,14.34,266.7
"2009-09-26 00:49:00",1273346,2.271,316.2,5.73,1.234,13.68,105.5732,13.54,14.64,47.83,0,110.6,13.24,14.34,278.2
"2009-09-26 00:49:30",1273347,2.283,315.4,6.92,1.139,14.4,105.549,13.48,14.77,48.02,0,110.5,13.24,14.28,277.4
"2009-09-26 00:50:00",1273348,1.926,314.7,3.548,0.911,13.06,105.5405,13.46,14.58,48.04,0,110.5,13.24,14.26,276.7
"2009-09-26 00:50:30",1273349,1.672,314,0.577,0.036,12.67,105.5389,13.45,14.56,47.99,0,110.5,13.28,14.25,276.0
"2009-09-26 00:51:00",1273350,1.567,313.4,1.015,0.064,12.7,105.5231,13.41,14.52,48.03,0,110.5,13.28,14.21,275.4
"2009-09-26 00:51:30",1273351,1.466,310.2,0.788,0.043,12.76,105.5077,13.37,14.5,48.14,0,110.5,13.28,14.17,272.2
"2009-09-26 00:52:00",1273352,2.433,313,7.969,1.35,15.07,105.5127,13.38,14.7,48.48,0,110.5,13.25,14.18,275.0
"2009-09-26 00:52:30",1273353,2.714,315.7,6.617,1.356,15.88,105.5052,13.37,14.7,48.64,0,110.5,13.25,14.16,277.7
"2009-09-26 00:53:00",1273354,2.371,312.7,6.123,1.307,14.08,105.4926,13.33,14.47,48.52,0,110.5,13.25,14.13,274.7
"2009-09-26 00:53:30",1273355,1.364,305.9,1.962,0.048,12.17,105.5003,13.35,14.41,48.66,0,110.5,13.28,14.15,267.9
"2009-09-26 00:54:00",1273356,1.412,304,1.454,0.031,12.17,105.5015,13.36,14.39,48.73,0,110.5,13.28,14.15,266.0
"2009-09-26 00:54:30",1273357,2.637,310.5,7.914,1.359,14.77,105.4847,13.31,14.53,49,0,110.5,13.25,14.11,272.5
"2009-09-26 00:55:00",1273358,1.557,305.2,4.513,0.678,13.37,105.4748,13.29,14.48,49.09,0,110.5,13.25,14.09,267.2
"2009-09-26 00:55:30",1273359,1.329,302.7,0.999,0.051,12.52,105.4737,13.28,14.33,49.01,0,110.5,13.29,14.08,264.7
"2009-09-26 00:56:00",1273360,1.147,301,1.725,0.035,12.32,105.4517,13.23,14.3,49.15,0,110.5,13.25,14.03,263.0
"2009-09-26 00:56:30",1273361,2.199,304.9,7.781,1.244,14.49,105.441,13.2,14.43,49.45,0,110.5,13.25,14.00,266.9
"2009-09-26 00:57:00",1273362,1.007,299,2.011,0.04,12.58,105.441,13.2,14.26,49.45,0,110.5,13.28,14.00,261.0
"2009-09-26 00:57:30",1273363,1.081,295.6,1.431,0.058,12.34,105.4227,13.15,14.25,49.5,0,110.5,13.28,13.95,257.6
"2009-09-26 00:58:00",1273364,1.219,302.4,6.26,0.062,12.49,105.4072,13.11,14.21,49.46,0,110.5,13.29,13.91,264.4
"2009-09-26 00:58:30",1273365,1.289,301.1,1.256,0.055,12.75,105.4055,13.11,14.2,49.17,0,110.5,13.29,13.91,263.1
"2009-09-26 00:59:00",1273366,1.238,302.9,1.416,0.034,13.01,105.3827,13.05,14.17,49.17,0,110.5,13.29,13.85,264.9
"2009-09-26 00:59:30",1273367,1.946,303,9.08,1.227,14.67,105.3734,13.03,14.32,49.51,0,110.5,13.25,13.83,265.0
"2009-09-26 01:00:00",1273368,1.81,305.2,5.203,1.123,13.8,105.3689,13.02,14.12,49.23,0,110.5,13.25,13.81,267.2
"2009-09-26 01:00:30",1273369,2.193,300.3,6.661,1.291,14.69,105.3428,12.95,14.27,49.29,0,110.4,13.25,13.75,262.3
"2009-09-26 01:01:00",1273370,1.095,295.2,2.993,0.072,12.42,105.3453,12.96,14.08,49.13,0,110.4,13.29,13.75,257.2
"2009-09-26 01:01:30",1273371,1.16,295.8,1.276,0.043,12.22,105.3425,12.95,14.05,49.05,0,110.4,13.3,13.75,257.8
"2009-09-26 01:02:00",1273372,1.209,290.7,1.824,0.074,12.4,105.3254,12.91,14.02,48.96,0,110.4,13.3,13.70,252.7
"2009-09-26 01:02:30",1273373,1.266,293.1,1.309,0.05,12.53,105.3343,12.93,14.08,49.32,0,110.5,13.26,13.73,255.1
"2009-09-26 01:03:00",1273374,2.481,298.1,7.031,1.362,14.92,105.3335,12.93,14.05,49.69,0,110.4,13.26,13.72,260.1
"2009-09-26 01:03:30",1273375,1.021,295,2.341,0.095,12.55,105.3169,12.88,14.06,49.84,0,110.4,13.3,13.68,257.0
"2009-09-26 01:04:00",1273376,2.014,300.8,7.963,1.333,14.49,105.3076,12.86,14.01,49.59,0,110.5,13.27,13.66,262.8
"2009-09-26 01:04:30",1273377,0.997,295.8,3.242,0.072,12.28,105.3059,12.86,13.99,49.4,0,110.4,13.3,13.65,257.8
"2009-09-26 01:05:00",1273378,1.097,298.2,2.289,0.08,12.09,105.2907,12.82,13.9,49.65,0,110.4,13.31,13.61,260.2
"2009-09-26 01:05:30",1273379,0.84,292.6,4.589,0.135,12.46,105.2738,12.77,13.89,49.76,0,110.4,13.31,13.57,254.6
"2009-09-26 01:06:00",1273380,0.785,293.9,4.019,0.069,12.61,105.2738,12.77,13.87,49.52,0,110.4,13.31,13.57,255.9
"2009-09-26 01:06:30",1273381,0.826,306.1,5.77,0.083,12.65,105.271,12.77,13.84,49.04,0,110.4,13.31,13.56,268.1
"2009-09-26 01:07:00",1273382,2.161,305.6,11.13,1.222,14.96,105.2471,12.7,13.9,49.08,0,110.4,13.28,13.50,267.6
"2009-09-26 01:07:30",1273383,1.072,315.8,8.63,0.859,13.28,105.24,12.69,13.91,49.45,0,110.4,13.28,13.48,277.8
"2009-09-26 01:08:00",1273384,1.839,329.6,10.53,0.942,14.44,105.2389,12.68,13.85,49.16,0,110.4,13.28,13.48,291.6
"2009-09-26 01:08:30",1273385,1.479,327.1,6.93,0.992,13.83,105.2209,12.64,13.87,49.07,0,110.4,13.28,13.43,289.1
"2009-09-26 01:09:00",1273386,1.717,311.8,11.36,1.203,13.66,105.2062,12.6,13.82,49.36,0,110.4,13.28,13.40,273.8
"2009-09-26 01:09:30",1273387,1.433,304.3,7.413,0.857,13.74,105.2086,12.61,13.78,49.52,0,110.4,13.28,13.40,266.3
"2009-09-26 01:10:00",1273388,1.317,308.6,3.888,0.078,12.49,105.2113,12.61,13.69,49.35,0,110.4,13.32,13.41,270.6
"2009-09-26 01:10:30",1273389,0.958,311.4,3.859,0.151,12.8,105.2072,12.6,13.67,49.19,0,110.4,13.32,13.40,273.4
"2009-09-26 01:11:00",1273390,1.793,324.3,7.475,1.171,13.79,105.188,12.55,13.66,49,0,110.4,13.28,13.35,286.3
"2009-09-26 01:11:30",1273391,2.193,326.7,10.81,1.28,15.25,105.1917,12.56,13.86,48.97,0,110.4,13.28,13.36,288.7
"2009-09-26 01:12:00",1273392,1.292,323.7,6.097,1.032,13.43,105.1997,12.58,13.72,48.61,0,110.4,13.28,13.38,285.7
"2009-09-26 01:12:30",1273393,0.907,317,6.275,0.12,12.36,105.2002,12.58,13.62,48.56,0,110.4,13.32,13.38,279.0
"2009-09-26 01:13:00",1273394,0.596,312.3,4.285,0.088,11.9,105.1874,12.55,13.61,48.64,0,110.4,13.32,13.35,274.3
"2009-09-26 01:13:30",1273395,0.74,313.9,2.519,0.089,12.19,105.1742,12.52,13.59,48.75,0,110.4,13.32,13.31,275.9
"2009-09-26 01:14:00",1273396,0.789,305.9,3.512,0.053,12.26,105.1742,12.52,13.58,49.05,0,110.4,13.32,13.31,267.9
"2009-09-26 01:14:30",1273397,0.847,301.9,3.054,0.097,12.5,105.1739,12.52,13.56,49.31,0,110.4,13.32,13.31,263.9
"2009-09-26 01:15:00",1273398,0.832,295.6,4.328,0.11,12.89,105.1561,12.47,13.55,49.34,0,110.4,13.32,13.27,257.6
"2009-09-26 01:15:30",1273399,1.128,315,7.9,1.047,13.55,105.1434,12.44,13.53,49.18,0,110.4,13.28,13.23,277.0
"2009-09-26 01:16:00",1273400,2.119,311.1,8.4,1.448,15.06,105.1403,12.43,13.7,49.14,0,110.4,13.28,13.23,273.1
"2009-09-26 01:16:30",1273401,0.897,300,7.334,0.072,12.81,105.1403,12.43,13.51,49.44,0,110.4,13.32,13.23,262.0
"2009-09-26 01:17:00",1273402,0.774,307.5,4.33,0.071,12.62,105.1403,12.43,13.49,49.86,0,110.4,13.32,13.23,269.5
"2009-09-26 01:17:30",1273403,1.879,306.6,7.414,1.347,14.84,105.1308,12.41,13.63,50.01,0,110.4,13.29,13.20,268.6
"2009-09-26 01:18:00",1273404,0.923,287.4,3.816,0.074,12.98,105.1102,12.35,13.53,49.98,0,110.4,13.33,13.15,249.4
"2009-09-26 01:18:30",1273405,0.895,285.8,2.431,0.089,12.85,105.1065,12.35,13.46,50,0,110.4,13.33,13.14,247.8
"2009-09-26 01:19:00",1273406,1.106,293.9,3.172,0.058,12.59,105.1065,12.35,13.44,50,0,110.4,13.33,13.14,255.9
"2009-09-26 01:19:30",1273407,2.275,304.4,7.241,1.394,14.76,105.1074,12.35,13.51,50.23,0,110.3,13.29,13.14,266.4
"2009-09-26 01:20:00",1273408,3.133,307.8,9.8,1.215,16.7,105.1046,12.34,13.64,50.51,0,110.3,13.29,13.14,269.8
"2009-09-26 01:20:30",1273409,1.509,302.9,7.377,0.957,13.6,105.0983,12.32,13.57,50.49,0,110.3,13.29,13.12,264.9
"2009-09-26 01:21:00",1273410,0.986,295.7,4.572,0.082,12.36,105.0903,12.3,13.38,50.33,0,110.3,13.33,13.10,257.7
"2009-09-26 01:21:30",1273411,1.023,301.6,3.575,0.102,11.99,105.0925,12.31,13.37,50.14,0,110.3,13.33,13.10,263.6
"2009-09-26 01:22:00",1273412,0.948,302.3,2.986,0.086,12.14,105.0961,12.32,13.36,50.05,0,110.3,13.33,13.11,264.3
"2009-09-26 01:22:30",1273413,1.148,297.6,1.983,0.204,12.36,105.0979,12.32,13.34,49.85,0,110.3,13.33,13.12,259.6
"2009-09-26 01:23:00",1273414,1.285,294.5,1.882,0.048,12.51,105.0939,12.31,13.34,50.04,0,110.3,13.34,13.11,256.5
"2009-09-26 01:23:30",1273415,2.509,295.8,7.03,1.353,14.43,105.0769,12.27,13.37,50.34,0,110.3,13.3,13.06,257.8
"2009-09-26 01:24:00",1273416,2.368,296.1,6.411,1.298,14.84,105.0738,12.26,13.49,50.6,0,110.3,13.3,13.06,258.1
"2009-09-26 01:24:30",1273417,1.376,289,2.767,0.044,12.67,105.0744,12.26,13.31,50.54,0,110.3,13.34,13.06,251.0
"2009-09-26 01:25:00",1273418,1.361,286.2,1.859,0.041,12.66,105.0744,12.26,13.29,50.69,0,110.3,13.34,13.06,248.2
"2009-09-26 01:25:30",1273419,2.227,291.1,9.35,1.213,14.51,105.0727,12.26,13.38,50.94,0,110.3,13.31,13.05,253.1
"2009-09-26 01:26:00",1273420,1.99,290.8,6.162,0.921,13.61,105.0634,12.23,13.39,51.06,0,110.3,13.31,13.03,252.8
"2009-09-26 01:26:30",1273421,1.999,298.4,5.797,1.07,13.98,105.0519,12.21,13.29,51.1,0,110.3,13.31,13.00,260.4
"2009-09-26 01:27:00",1273422,1.618,290.3,3.622,0.094,12.91,105.0406,12.18,13.34,50.87,0,110.3,13.34,12.97,252.3
"2009-09-26 01:27:30",1273423,3.49,292.4,7.599,1.292,16.72,105.0406,12.18,13.47,51.17,0,110.3,13.31,12.97,254.4
"2009-09-26 01:28:00",1273424,2.369,281.5,10.95,1.048,14.67,105.0406,12.18,13.42,51.36,0,110.3,13.31,12.97,243.5
"2009-09-26 01:28:30",1273425,2.435,290.8,5.444,1.216,13.45,105.0406,12.18,13.23,51.39,0,110.3,13.31,12.97,252.8
"2009-09-26 01:29:00",1273426,1.538,288.5,1.142,0.094,12.02,105.0406,12.18,13.23,51.22,0,110.3,13.34,12.97,250.5
"2009-09-26 01:29:30",1273427,1.681,282.1,2.9,0.088,12.33,105.0293,12.15,13.21,50.97,0,110.3,13.34,12.94,244.1
"2009-09-26 01:30:00",1273428,1.746,280.9,3.718,0.095,12.46,105.018,12.12,13.2,51.03,0,110.3,13.34,12.91,242.9
"2009-09-26 01:30:30",1273429,3.064,284.2,6.762,1.43,15.04,105.009,12.1,13.26,51.43,0,110.3,13.3,12.89,246.2
"2009-09-26 01:31:00",1273430,2.483,285.8,6.678,1.318,14.8,105.0068,12.09,13.36,51.28,0,110.3,13.3,12.88,247.8
"2009-09-26 01:31:30",1273431,1.608,279.3,1.987,0.098,12.94,105.0068,12.09,13.19,50.85,0,110.3,13.34,12.88,241.3
"2009-09-26 01:32:00",1273432,1.513,280,3.11,0.056,12.77,105.0077,12.09,13.19,50.78,0,110.3,13.34,12.89,242.0
"2009-09-26 01:32:30",1273433,1.607,278,1.826,0.053,12.91,105.0074,12.09,13.17,50.72,0,110.3,13.34,12.89,240.0
"2009-09-26 01:33:00",1273434,1.79,283.1,5.172,0.177,13.2,105.01,12.1,13.26,50.8,0,110.3,13.34,12.89,245.1
"2009-09-26 01:33:30",1273435,2.626,296.3,2.759,1.246,15.21,105.0127,12.1,13.24,50.85,0,110.3,13.31,12.90,258.3
"2009-09-26 01:34:00",1273436,1.867,295.9,5.244,0.696,14.2,105.0159,12.11,13.29,50.6,0,110.3,13.31,12.91,257.9
"2009-09-26 01:34:30",1273437,2.387,304.7,9.04,1.275,15.32,105.0165,12.11,13.31,50.3,0,110.3,13.31,12.91,266.7
"2009-09-26 01:35:00",1273438,2.585,304,6.216,1.444,15.34,105.0192,12.12,13.25,50.14,0,110.3,13.31,12.92,266.0
"2009-09-26 01:35:30",1273439,1.822,300.7,3.484,0.932,13.95,105.0194,12.12,13.31,50.28,0,110.3,13.31,12.92,262.7
"2009-09-26 01:36:00",1273440,1.181,298.5,4.041,0.494,12.58,105.0219,12.13,13.15,50.18,0,110.3,13.31,12.92,260.5
"2009-09-26 01:36:30",1273441,1.314,302.5,4.326,0.094,12.39,105.0212,12.13,13.14,50.15,0,110.3,13.35,12.92,264.5
"2009-09-26 01:37:00",1273442,1.272,300.2,1.898,0.051,12.5,105.0235,12.13,13.14,50.09,0,110.3,13.35,12.93,262.2
"2009-09-26 01:37:30",1273443,1.191,294.6,4.533,0.064,12.47,105.0194,12.12,13.17,50.17,0,110.3,13.35,12.92,256.6
"2009-09-26 01:38:00",1273444,2.438,303.6,6.371,1.407,14.8,105.0103,12.1,13.28,50.31,0,110.3,13.32,12.89,265.6
"2009-09-26 01:38:30",1273445,0.981,307.6,3.255,0.092,12.89,105.0087,12.09,13.21,50.18,0,110.3,13.35,12.89,269.6
"2009-09-26 01:39:00",1273446,1.175,312.4,3.023,0.053,12.7,105.0085,12.09,13.11,49.95,0,110.3,13.35,12.89,274.4
"2009-09-26 01:39:30",1273447,1.007,309.1,9.44,0.183,12.67,105.0087,12.09,13.13,49.81,0,110.3,13.36,12.89,271.1
"2009-09-26 01:40:00",1273448,1.245,314.7,9.83,0.144,12.79,105.0085,12.09,13.12,49.8,0,110.3,13.36,12.89,276.7
"2009-09-26 01:40:30",1273449,1.337,316.6,4.197,0.179,12.86,105.0085,12.09,13.12,49.84,0,110.3,13.36,12.89,278.6
"2009-09-26 01:41:00",1273450,1.465,307.3,5.494,0.702,13.21,105.0085,12.09,13.12,50.02,0,110.3,13.33,12.89,269.3
"2009-09-26 01:41:30",1273451,1.867,306.3,6.695,1.182,15.1,105.0085,12.09,13.29,50.31,0,110.3,13.33,12.89,268.3
"2009-09-26 01:42:00",1273452,2.572,301.5,14.97,1.37,16.13,105.0085,12.09,13.21,50.25,0,110.3,13.33,12.89,263.5
"2009-09-26 01:42:30",1273453,0.921,299.1,9.51,0.092,13.21,105.0085,12.09,13.16,50.29,0,110.3,13.36,12.89,261.1
"2009-09-26 01:43:00",1273454,1.084,303.5,4.547,0.155,13.07,105.0085,12.09,13.25,50.27,0,110.3,13.36,12.89,265.5
"2009-09-26 01:43:30",1273455,2.195,289.3,15.06,1.348,14.91,105.0085,12.09,13.17,50.18,0,110.3,13.33,12.89,251.3
"2009-09-26 01:44:00",1273456,0.742,301.3,7.85,0.118,12.47,105.0085,12.09,13.17,50.21,0,110.3,13.36,12.89,263.3
"2009-09-26 01:44:30",1273457,0.654,310.3,4.725,0.088,12.16,105.0085,12.09,13.11,50.03,0,110.3,13.36,12.89,272.3
"2009-09-26 01:45:00",1273458,0.786,314.3,6.573,0.093,12.33,105.0076,12.09,13.11,50.03,0,110.3,13.36,12.89,276.3
"2009-09-26 01:45:30",1273459,0.64,307.7,3.355,0.087,12.3,105.0048,12.08,13.09,50.05,0,110.3,13.36,12.88,269.7
"2009-09-26 01:46:00",1273460,1.677,318.9,7.569,1.298,14.81,105.0008,12.07,13.27,50.26,0,110.3,13.33,12.87,280.9
"2009-09-26 01:46:30",1273461,0.766,307.9,8.82,0.724,12.72,104.9986,12.07,13.17,50.13,0,110.3,13.33,12.86,269.9